Location: Phoenix
(33.4480°N, 112.0730°W)
Time: 12:31:44
(UTC-07:00)

ISS - All Passes

Search period start: 27 May 2018 00:00
Search period end: 06 June 2018 00:00
Orbit: 402 x 407 km, 51.6° (Epoch: 27 May)

Date Brightness Start Highest point End Pass type
(mag) Time Alt. Az. Time Alt. Az. Time Alt. Az.
27 May - 00:44:14 10° N 00:45:49 13° NNE 00:47:24 10° ENE visible
27 May - 02:19:22 10° NW 02:22:37 68° SW 02:25:50 10° SE night (unlit)
27 May - 17:20:27 10° S 17:23:09 24° SE 17:25:53 10° ENE daylight
27 May - 18:56:51 10° W 18:59:35 24° NW 19:02:19 10° NNE daylight
28 May - 01:27:14 10° NW 01:30:26 52° NE 01:33:36 10° ESE night (unlit)
28 May - 03:05:57 10° WSW 03:06:31 10° SW 03:07:05 10° SW night (unlit)
28 May - 16:29:57 10° SSE 16:31:08 12° SE 16:32:20 10° ESE daylight
28 May - 18:04:07 10° WSW 18:07:17 47° NW 18:10:27 10° NE daylight
29 May - 00:35:20 10° NNW 00:38:08 26° NE 00:40:56 10° E visible
29 May - 02:11:54 10° WNW 02:14:30 22° SW 02:17:06 10° S night (unlit)
29 May - 17:11:49 10° SW 17:15:03 76° SE 17:18:20 10° NE daylight
29 May - 18:50:29 10° NW 18:51:53 12° NNW 18:53:18 10° N daylight
29 May - 23:43:43 10° N 23:45:44 15° NNE 23:47:45 10° ENE visible
30 May - 01:19:15 10° WNW 01:22:24 49° SW 01:25:34 10° SSE night (unlit)
30 May - 16:19:58 10° SSW 16:22:55 32° SE 16:25:53 10° ENE daylight
30 May - 17:56:56 10° W 17:59:26 20° NW 18:01:56 10° NNE daylight
31 May - 00:26:58 10° NW 00:30:13 70° NE 00:33:28 10° SE visible
31 May - 15:28:50 10° SSE 15:30:50 15° SE 15:32:50 10° E daylight
31 May - 17:04:00 10° WSW 17:07:04 36° NW 17:10:07 10° NNE daylight
31 May - 23:34:56 10° NNW 23:37:55 32° NE 23:40:54 10° ESE visible
01 Jun - 01:12:00 10° W 01:14:12 17° SW 01:16:23 10° S night (unlit)
01 Jun - 16:11:30 10° SW 16:14:46 80° NW 16:18:03 10° NE daylight
01 Jun - 17:51:09 10° NW 17:51:42 10° NNW 17:52:15 10° NNW daylight
01 Jun - 22:43:10 10° NNW 22:45:31 18° NNE 22:47:53 10° E visible
02 Jun - 00:19:03 10° WNW 00:22:05 36° SW 00:25:06 10° SSE night (unlit)
02 Jun - 15:19:26 10° SSW 15:22:33 43° SE 15:25:41 10° ENE daylight
02 Jun - 16:56:59 10° WNW 16:59:11 17° NNW 17:01:23 10° N daylight
02 Jun - 21:51:56 10° N 21:53:01 11° NNE 21:54:06 10° NE visible
02 Jun - 23:26:37 10° NW 23:29:53 87° SW 23:33:08 10° SE visible
03 Jun - 14:27:58 10° S 14:30:24 20° SE 14:32:52 10° E daylight
03 Jun - 16:03:50 10° W 16:06:44 29° NW 16:09:38 10° NNE daylight
03 Jun - 22:34:28 10° NNW 22:37:35 41° NE 22:40:41 10° ESE visible
04 Jun - 00:12:10 10° W 00:13:45 13° SW 00:15:21 10° SSW night (unlit)
04 Jun - 15:11:08 10° WSW 15:14:22 59° NW 15:17:37 10° NE daylight
04 Jun - 21:42:33 10° NNW 21:45:11 22° NE 21:47:48 10° E visible
04 Jun - 23:18:48 10° WNW 23:21:38 27° SW 23:24:27 10° S visible
05 Jun - 14:18:53 10° SSW 14:22:05 59° SE 14:25:19 10° NE daylight
05 Jun - 15:57:00 10° WNW 15:58:49 14° NNW 16:00:39 10° N daylight
05 Jun - 20:50:59 10° N 20:52:40 13° NNE 20:54:20 10° ENE visible
05 Jun - 22:26:11 10° NW 22:29:25 64° SW 22:32:38 10° SE visible
